GFSFLT2_prec_cloud_003.txt.gz
Cloud_Cover
36 80 100 97 93 62 79 100 100 100 100 100 100 100 100 100 100 100 100 99 100 100 100 100 100 100 100
29 70 95 98 100 100 100 100 100 100 100 100 100 100 100 100 100 100 100 100 92 100 100 100 100 100 100
72 70 88 96 54 11 97 100 100 100 100 100 100 100 100 100 100 100 100 100 100 100 100 100 100 100 100
83 82 68 44 100 100 94 100 100 100 100 100 100 100 100 100 100 100 100 100 100 100 100 100 100 100 100
66 92 83 95 100 100 100 100 100 100 100 100 100 100 100 100 96 100 100 100 100 100 100 100 100 100 100
69 49 99 100 100 100 100 100 92 100 100 100 100 98 100 100 100 100 100 100 100 100 100 100 100 100 100
94 97 100 100 100 100 100 100 100 100 100 100 99 85 99 100 100 100 100 100 100 100 100 100 100 100 100
100 100 98 99 100 100 100 100 100 100 100 100 100 100 100 100 100 100 100 100 100 100 100 100 100 100 100
98 100 100 100 100 100 100 100 100 100 100 100 100 100 100 100 100 100 100 100 100 100 100 100 100 100 100
44 100 100 100 100 100 100 100 100 100 99 100 100 100 100 100 100 100 100 100 100 100 100 100 100 100 100
99 100 100 100 100 100 100 100 100 100 100 100 100 100 100 100 100 100 100 100 100 100 100 100 100 100 100
100 100 99 100 100 99 100 100 100 100 100 100 100 100 100 100 100 100 100 100 100 100 100 100 100 100 100
100 100 96 100 100 93 100 97 100 100 100 100 100 100 100 100 100 100 100 100 100 100 100 100 100 100 100
100 100 93 100 99 100 100 100 100 100 100 100 100 100 100 100 100 100 100 100 100 100 100 100 100 100 100
100 100 98 96 100 100 100 100 100 100 100 100 100 100 100 100 100 100 100 100 100 100 100 100 100 100 100
100 100 100 100 100 100 100 100 100 100 100 100 100 100 100 100 100 100 100 100 100 100 100 100 100 100 100
100 100 100 100 100 100 100 100 100 100 100 100 100 100 100 100 100 100 100 100 100 100 100 66 81 10 5

GFSFLT2_prec_cloud_006.txt.gz
Cloud_Cover
4 5 5 27 90 100 100 100 100 100 100 100 100 74 5 62 91 100 100 100 100 100 100 98 100 100 100
0 0 3 3 11 100 99 98 100 100 100 100 100 100 99 99 100 100 100 100 100 100 100 100 100 100 100
5 5 5 3 4 4 5 83 100 100 100 100 100 100 100 100 89 100 100 100 100 100 100 100 100 100 100
99 45 6 4 5 5 5 5 10 100 100 100 100 100 100 100 100 100 100 100 100 100 100 100 100 100 100
99 99 100 79 54 5 56 64 100 100 95 90 100 100 98 100 100 100 100 54 92 100 100 100 100 100 100
100 100 96 6 75 93 100 98 100 100 100 100 100 100 100 100 100 100 93 100 86 100 100 100 100 100 100
97 75 98 72 100 83 100 100 100 42 100 95 100 100 100 100 100 74 100 91 97 100 100 100 100 100 100
100 100 99 100 82 68 100 100 100 100 100 100 100 100 100 100 100 100 67 100 99 100 100 100 100 100 100
98 87 80 10 75 100 100 100 100 100 100 100 100 100 100 100 93 28 89 100 100 100 100 100 100 100 100
57 16 31 71 86 100 100 100 100 100 62 99 100 100 100 100 100 100 100 100 100 100 100 100 100 100 100
76 85 89 100 100 100 100 100 100 100 96 100 100 100 100 100 100 100 100 100 100 100 100 100 100 100 100
100 98 100 100 100 100 100 100 100 100 77 100 100 100 100 100 100 100 100 100 100 100 100 100 100 100 100
100 100 100 100 100 100 99 80 96 95 99 98 100 100 100 100 100 100 100 100 100 100 100 100 100 100 100
100 100 100 97 100 83 100 75 100 100 100 100 100 100 100 100 100 100 100 100 100 100 100 100 100 100 100
100 100 100 100 92 97 100 100 100 100 100 100 100 100 100 100 100 100 100 100 100 100 100 100 100 100 100
100 100 100 100 100 100 100 100 100 100 100 100 100 100 100 100 100 100 100 100 100 100 100 100 100 100 100
100 100 100 100 100 100 100 100 100 100 100 100 100 100 100 100 100 100 100 100 100 100 100 100 100 100 100

GFSFLT2_prec_cloud_009.txt.gz
Cloud_Cover
5 10 11 0 3 5 3 0 0 2 15 100 100 100 100 82 93 100 100 86 58 75 100 100 100 100 100
24 5 5 24 5 5 5 5 4 0 0 0 81 100 100 100 100 96 85 78 90 100 100 100 100 100 100
5 5 5 30 5 5 5 5 5 5 5 5 33 47 100 100 100 100 100 100 76 44 86 100 100 100 100
62 5 5 5 5 5 5 5 5 24 62 29 0 3 52 94 46 100 100 100 100 99 100 100 100 100 100
37 92 50 5 5 39 94 89 69 95 43 38 7 10 69 100 100 100 100 98 100 100 88 100 100 100 100
46 98 47 5 62 91 99 100 100 7 93 98 99 54 5 23 100 100 100 100 100 70 69 36 100 100 100
100 100 36 5 98 100 99 92 100 100 100 99 91 100 100 100 100 100 97 100 99 93 100 98 98 100 100
100 84 91 69 84 100 98 98 98 100 100 100 87 48 99 100 75 60 46 51 79 100 100 98 100 100 100
100 100 97 97 100 100 97 100 65 77 100 100 100 100 100 100 100 100 81 48 96 100 100 100 100 100 100
5 5 30 16 100 100 100 100 100 100 100 100 92 100 100 98 100 100 100 100 98 100 100 100 100 100 100
26 91 72 79 93 100 100 100 100 100 100 100 99 100 100 90 100 100 100 100 100 100 100 100 100 100 100
99 100 100 97 100 100 100 100 100 100 98 100 100 96 100 100 98 100 100 100 100 100 100 100 100 100 100
100 100 100 100 100 98 88 100 99 100 100 100 100 100 100 100 99 100 100 100 100 100 100 100 100 100 100
100 100 100 100 100 100 100 100 100 100 100 100 100 100 100 100 100 100 100 100 100 100 100 100 100 100 100
100 100 100 100 100 96 100 100 100 100 100 100 100 100 100 100 100 100 100 100 100 100 100 100 100 100 100
100 100 100 100 100 100 100 100 100 100 100 100 100 100 100 100 100 100 100 100 100 100 100 100 100 100 100
100 100 100 100 100 100 100 100 100 100 100 100 100 100 100 100 100 100 100 100 100 100 100 100 100 100 100

GFSFLT2_prec_cloud_012.txt.gz
Cloud_Cover
47 1 5 5 5 7 5 5 5 28 9 66 54 5 5 5 92 12 59 91 100 53 100 100 100 100 94
30 73 50 68 99 93 42 14 5 51 36 5 5 5 5 0 18 34 99 100 93 97 99 55 100 87 100
5 5 5 5 30 21 80 26 7 77 5 5 41 39 5 14 2 0 21 19 18 100 100 100 100 100 84
29 5 5 3 5 5 5 5 8 5 5 55 21 75 13 5 5 4 64 98 64 100 100 87 99 65 92
68 24 5 4 8 5 58 5 5 5 10 40 59 22 14 5 5 12 85 100 100 100 82 100 100 69 51
96 81 5 10 16 5 52 86 87 2 100 37 5 5 5 5 31 58 71 100 100 100 100 95 100 100 100
100 82 5 45 86 83 100 46 26 5 29 18 11 16 5 5 50 69 100 100 100 100 100 100 98 98 100
89 81 93 95 100 97 91 86 84 74 100 100 100 100 59 94 100 100 100 100 98 47 52 100 100 100 100
100 100 33 89 100 100 93 100 100 100 100 100 90 90 100 100 100 100 100 96 100 90 67 100 100 100 100
46 5 81 98 100 100 100 100 100 100 100 100 96 99 100 100 100 100 100 74 93 99 96 97 100 100 100
83 87 91 98 100 100 100 100 100 100 100 100 100 100 97 100 100 99 100 100 100 100 100 100 100 100 100
100 97 100 100 100 100 98 100 100 100 100 100 100 99 100 90 100 94 100 100 100 100 100 100 100 100 100
100 98 94 90 95 91 99 98 100 100 100 100 100 99 100 100 94 100 100 100 100 100 100 100 100 100 100
100 100 100 100 100 100 100 100 100 100 100 100 100 100 100 99 100 100 100 100 100 100 100 100 100 100 100
100 100 100 100 100 100 100 100 100 100 100 100 100 100 100 100 100 100 100 100 100 100 100 100 100 100 100
100 100 100 100 100 100 100 100 100 100 100 100 100 100 100 100 100 100 100 100 100 100 100 100 100 100 100
100 100 100 100 100 100 100 100 100 100 100 100 100 100 100 100 100 100 100 100 100 100 100 100 100 100 100

GFSFLT2_prec_cloud_015.txt.gz
Cloud_Cover
2 5 5 5 5 5 4 72 5 10 6 7 5 5 5 76 96 100 100 87 22 100 100 100 100 100 100
5 5 5 5 5 6 5 0 2 2 5 5 96 100 6 11 100 100 79 100 100 88 15 95 100 100 100
22 5 5 5 8 5 5 4 0 4 95 98 7 29 94 40 81 100 100 44 81 20 70 89 29 78 100
90 19 86 5 85 46 5 5 2 5 5 5 7 5 12 78 56 100 42 40 5 4 5 99 4 52 100
79 94 62 5 5 5 5 5 5 75 5 5 5 5 30 24 69 89 95 15 5 57 97 100 100 97 100
100 100 77 5 5 28 96 100 93 35 44 5 35 18 5 5 40 99 100 100 100 100 92 100 100 100 100
98 86 53 20 85 98 100 86 61 5 94 75 63 24 96 79 31 70 84 80 100 100 100 34 100 100 99
100 89 89 83 100 93 86 100 94 53 91 100 100 100 100 100 100 89 100 100 100 100 100 100 100 100 100
100 100 100 100 100 100 100 100 99 100 100 100 100 100 100 100 100 100 100 100 100 100 100 99 100 100 92
5 5 24 62 100 100 100 100 100 100 100 94 100 100 100 100 100 100 90 95 86 100 100 100 100 100 100
32 99 100 100 100 100 100 100 100 100 56 100 100 100 100 100 100 100 93 100 100 100 100 92 99 100 100
100 100 100 100 100 99 93 95 98 96 100 100 100 99 100 100 100 100 100 100 100 100 100 100 100 100 100
100 100 100 100 99 97 93 96 89 99 79 88 100 100 100 100 97 100 100 100 100 100 100 100 100 100 100
100 98 96 99 100 100 100 100 100 100 100 100 100 96 88 92 100 99 100 100 100 100 100 100 100 100 100
100 100 100 100 100 100 100 100 100 100 100 100 100 91 100 100 98 97 96 100 100 100 100 100 100 100 100
100 100 100 100 100 100 100 100 100 100 100 100 100 100 100 100 100 100 100 100 100 100 100 100 100 100 100
100 100 100 100 100 100 100 100 100 100 100 100 100 100 100 100 100 100 100 100 100 100 100 100 100 100 100

GFSFLT2_prec_cloud_018.txt.gz
Cloud_Cover
0 0 5 5 0 5 21 16 5 57 100 100 57 5 5 46 94 100 100 100 100 95 100 97 100 100 100
5 5 5 5 5 5 6 5 56 8 100 65 5 5 100 89 7 6 18 98 100 100 100 99 41 100 77
51 7 7 5 5 11 72 5 5 5 4 5 100 100 58 54 100 100 42 100 100 100 100 100 100 100 100
100 98 26 75 100 99 15 5 1 5 5 85 88 5 92 92 75 83 91 98 55 100 95 50 92 100 100
100 94 98 17 58 91 22 5 5 6 100 10 5 5 5 5 22 12 34 48 84 85 100 100 99 100 100
91 76 11 7 98 100 95 100 85 91 35 40 97 56 54 29 74 100 100 100 90 93 100 100 100 100 100
62 40 93 97 95 99 100 100 98 75 94 100 24 93 81 6 81 100 100 64 97 84 100 98 100 100 100
100 100 100 100 100 100 98 88 99 97 99 100 100 100 100 100 100 100 100 100 100 100 100 100 100 100 100
100 100 55 100 100 100 100 100 100 100 100 86 100 100 100 100 100 100 100 100 94 94 100 100 100 100 100
5 0 5 12 99 100 100 100 100 100 100 94 95 94 100 100 100 100 100 100 100 100 100 100 100 100 100
5 29 92 98 99 100 100 100 100 100 93 100 100 94 100 100 100 100 100 100 100 100 100 100 100 100 100
98 100 100 96 92 88 100 100 100 100 98 100 100 100 100 100 100 100 100 100 100 100 100 100 93 100 100
100 96 100 100 89 100 100 100 100 100 100 100 100 97 85 89 98 100 99 100 100 100 100 100 100 100 100
100 100 100 100 100 100 100 100 100 100 100 100 87 89 91 100 100 99 100 100 100 100 100 100 100 100 100
100 100 100 100 100 100 100 100 100 100 100 100 90 70 58 92 100 97 100 100 100 100 100 100 100 100 100
100 100 100 100 100 100 100 100 100 100 100 100 86 93 81 97 100 100 100 100 100 100 100 100 100 100 100
100 100 100 100 100 100 100 100 100 100 100 100 100 99 95 100 100 100 100 100 100 100 100 100 100 100 100

GFSFLT2_prec_cloud_021.txt.gz
Cloud_Cover
0 0 2 5 0 3 5 50 78 96 100 100 96 98 100 95 95 100 100 100 100 100 100 100 100 94 100
5 5 5 5 5 5 85 66 73 25 100 100 100 99 13 100 100 100 100 100 100 100 100 100 100 100 100
59 7 84 26 68 81 14 5 10 62 62 49 83 83 100 100 100 100 100 100 100 100 100 93 92 100 100
86 74 73 77 47 5 2 5 42 5 5 14 100 99 61 84 97 100 98 100 100 100 100 100 100 100 78
100 100 31 5 5 5 84 97 26 90 92 82 77 36 5 6 13 45 98 100 100 99 92 68 44 94 71
100 99 12 29 48 91 100 100 92 78 100 79 100 91 24 5 66 100 100 100 100 100 100 100 100 98 85
87 62 99 48 96 100 97 100 100 71 98 100 98 100 26 25 99 100 100 100 100 100 100 80 100 99 75
63 87 100 100 100 100 98 100 100 98 74 100 68 87 100 100 100 100 100 100 100 100 100 100 100 100 100
100 98 54 79 100 100 100 100 100 100 100 100 51 98 95 100 85 100 100 100 100 100 100 100 100 100 100
6 53 100 100 100 100 100 100 100 97 96 100 95 90 100 100 59 100 92 100 100 100 100 100 100 100 100
65 92 100 100 100 100 100 100 100 100 100 100 100 94 100 96 100 99 81 100 100 100 100 100 100 100 100
100 100 100 100 100 100 100 100 100 100 100 100 100 100 100 98 79 65 100 100 100 100 100 100 100 100 100
100 100 100 100 100 100 100 100 100 100 100 100 100 100 100 100 96 79 100 100 100 100 100 100 100 100 100
100 100 100 100 100 100 100 100 100 100 100 100 100 100 98 90 88 99 100 100 100 100 100 100 100 100 100
100 100 100 100 100 100 100 100 100 100 100 100 100 100 78 98 100 100 100 100 100 100 100 100 100 100 100
100 100 100 100 100 100 100 100 100 100 100 100 100 100 100 100 100 100 100 100 100 100 100 100 100 100 100
100 100 100 100 100 100 100 100 100 100 100 99 100 100 100 100 100 100 100 100 100 100 100 100 100 100 100

GFSFLT2_prec_cloud_024.txt.gz
Cloud_Cover
5 5 5 5 5 35 98 100 82 68 54 100 100 100 100 100 100 100 100 100 100 100 100 100 100 100 100
5 5 5 2 5 28 43 76 33 5 70 100 100 100 100 100 100 100 100 100 100 99 100 100 100 100 100
6 5 5 5 85 58 4 0 0 1 32 61 100 100 100 100 100 100 100 100 100 100 100 100 100 100 100
97 78 27 92 93 5 2 5 2 15 86 46 100 100 100 100 100 100 100 100 100 100 100 97 76 90 100
60 80 90 6 5 5 5 5 91 97 5 6 44 45 49 46 14 24 99 100 100 100 100 100 100 100 100
100 26 10 6 7 99 100 100 11 100 88 100 100 72 64 8 66 100 100 100 100 100 100 100 100 100 100
28 7 94 90 100 100 100 99 97 99 96 98 57 96 5 5 28 93 100 100 100 100 100 100 100 100 100
94 99 100 100 100 100 100 100 96 90 99 99 17 80 15 5 8 69 100 100 100 100 100 100 100 100 100
100 80 80 84 100 100 100 100 100 100 100 100 71 89 98 73 5 5 81 100 100 100 100 100 100 100 100
87 86 98 100 100 100 100 100 100 100 100 100 100 97 100 9 7 68 64 86 100 100 100 100 100 100 100
99 100 100 100 92 99 100 100 100 100 85 100 100 100 100 86 100 69 86 100 100 100 100 100 100 100 100
100 100 100 100 100 100 100 100 100 100 100 100 100 100 100 96 97 100 100 100 100 100 100 100 100 100 100
100 100 100 100 100 100 100 100 100 100 100 100 100 100 100 100 100 99 97 98 100 100 100 100 100 100 100
100 100 100 100 100 100 100 100 100 100 100 100 100 100 100 100 100 86 87 100 100 100 100 100 100 100 100
100 100 100 100 100 100 100 100 100 100 100 99 100 100 98 99 99 98 100 100 100 100 100 100 100 100 100
100 100 100 100 100 100 100 100 100 100 100 100 98 100 100 100 100 100 100 100 100 100 100 100 100 100 100
100 100 100 100 100 100 100 100 100 100 100 100 100 100 100 99 100 100 100 100 100 100 100 100 100 100 100

GFSFLT2_prec_cloud_027.txt.gz
Cloud_Cover
5 5 5 2 1 5 30 96 85 96 95 89 100 100 100 100 100 100 100 100 100 100 100 100 100 100 100
7 5 4 4 5 44 100 100 100 95 5 100 100 100 100 100 100 100 100 100 100 100 100 100 100 100 100
62 5 8 51 72 97 68 86 3 2 5 11 100 100 100 100 100 100 100 100 100 100 100 100 100 100 100
99 98 91 98 79 21 4 5 5 5 18 67 97 83 98 100 100 100 100 100 100 100 100 100 100 100 100
99 100 82 11 5 5 29 62 84 90 89 26 11 74 62 11 14 41 86 100 100 100 100 100 100 100 100
93 12 5 5 6 99 100 100 97 94 100 86 48 59 5 5 8 100 100 100 100 100 100 100 100 100 100
5 14 96 75 100 100 100 100 100 99 100 100 48 76 57 59 5 82 100 100 100 100 100 100 100 100 100
99 86 100 100 100 100 100 100 100 100 100 100 74 100 100 96 98 81 85 100 100 100 100 100 100 100 100
97 84 46 66 100 100 97 100 100 100 100 100 98 100 100 100 100 95 78 100 100 100 100 100 100 100 100
57 88 88 100 100 100 100 100 100 100 92 100 95 96 100 62 98 68 5 45 100 100 100 100 100 100 100
88 99 98 82 89 100 100 100 100 100 84 100 100 100 100 87 92 98 95 88 93 100 100 100 100 100 100
100 100 100 100 100 100 100 100 100 100 90 100 100 100 100 99 96 99 100 100 94 100 100 100 100 100 100
100 100 100 100 100 100 99 100 100 100 94 93 100 100 100 100 99 88 100 100 100 100 100 100 100 100 100
100 100 100 100 100 100 100 100 100 100 100 100 100 100 100 100 100 100 100 100 100 100 100 100 100 100 97
100 100 100 100 100 98 100 100 100 100 80 95 99 100 99 100 100 100 100 100 100 100 100 100 100 100 100
100 100 100 100 100 99 100 100 100 96 100 82 100 100 100 100 100 100 100 100 100 100 100 100 100 100 100
100 100 100 100 100 100 100 100 99 100 99 93 100 100 100 88 100 100 100 100 100 100 100 100 100 100 100

GFSFLT2_prec_cloud_030.txt.gz
Cloud_Cover
5 5 5 5 5 5 72 88 36 20 6 89 100 100 100 100 100 100 100 100 100 100 100 100 100 100 100
5 5 5 5 6 96 98 82 9 5 80 100 100 100 100 100 100 100 100 100 100 100 100 100 100 100 100
42 36 11 93 84 20 5 5 3 5 18 18 100 100 100 100 100 100 100 100 100 100 100 100 100 100 100
100 96 99 10 14 4 5 5 7 49 39 64 98 72 77 100 100 100 100 100 100 100 100 100 100 100 100
100 97 40 5 5 5 91 86 90 99 9 79 32 5 69 5 5 18 82 100 100 100 100 100 100 100 100
47 98 14 5 7 100 100 100 99 92 100 100 88 88 33 39 16 100 100 100 100 100 100 100 100 100 100
7 8 79 87 100 100 100 100 100 97 100 100 24 100 37 56 66 100 100 100 100 100 100 100 100 100 100
58 88 100 100 100 100 100 100 100 72 100 99 83 43 34 80 100 100 100 100 100 100 100 100 100 100 100
98 80 13 64 99 100 96 100 100 100 89 99 96 93 98 100 44 28 100 100 100 100 100 100 100 100 100
5 5 5 29 83 97 100 100 100 100 71 100 94 94 100 95 87 100 94 100 100 100 100 100 100 100 100
27 29 73 89 59 100 100 100 100 100 87 100 99 100 100 94 100 100 94 90 87 100 100 100 100 100 100
100 100 100 97 92 100 98 95 100 100 87 100 99 100 100 98 95 96 100 100 100 100 100 100 100 100 100
100 100 100 100 100 99 55 65 100 100 79 98 100 100 100 100 99 93 100 100 100 100 97 100 100 100 100
100 100 100 100 100 95 100 97 100 100 100 100 100 100 98 100 100 100 100 100 100 100 100 100 100 100 100
100 100 100 100 97 97 100 98 100 100 100 100 100 100 100 80 100 100 100 100 100 100 100 100 100 100 100
100 100 100 100 100 87 100 100 100 99 100 100 95 100 100 99 99 100 100 100 100 100 100 100 100 100 90
100 100 100 100 100 100 100 100 100 100 100 97 100 100 96 93 87 100 100 100 100 100 100 100 100 100 100

GFSFLT2_prec_cloud_033.txt.gz
Cloud_Cover
5 5 26 37 90 100 100 98 59 17 73 79 100 100 100 100 100 100 100 100 100 100 100 100 100 100 100
10 33 6 66 96 100 93 7 44 6 10 99 100 100 100 100 100 100 100 100 100 100 100 100 100 100 100
12 5 79 96 82 5 5 5 23 31 5 98 100 100 100 100 100 100 100 100 100 100 100 100 100 100 100
68 100 53 5 5 5 31 5 99 75 10 98 100 99 100 100 100 100 100 100 100 100 100 100 100 100 100
100 67 14 5 12 18 98 94 84 100 10 67 66 20 18 55 67 96 100 100 100 100 100 100 100 100 100
90 80 6 86 14 100 100 100 99 72 100 100 56 18 5 5 32 100 100 100 100 100 100 100 100 100 100
66 37 96 37 100 100 100 100 100 84 96 98 5 32 9 62 96 100 100 100 100 100 100 100 100 100 100
76 79 100 100 100 99 96 100 98 31 98 99 19 72 96 97 100 100 94 100 100 100 100 100 100 100 100
91 98 41 45 98 100 89 100 100 58 5 100 82 97 100 100 97 91 80 100 100 100 100 100 100 100 100
47 5 5 6 89 100 100 100 100 100 25 100 96 96 100 93 73 95 100 100 100 100 100 100 100 100 100
9 20 66 99 70 84 100 100 100 100 66 100 100 100 100 87 54 70 89 66 100 100 100 100 100 100 100
98 96 99 88 79 90 100 100 100 100 75 100 98 100 100 94 96 92 100 100 100 100 100 100 100 100 100
100 100 100 100 100 100 100 88 100 100 95 99 100 99 100 100 99 63 98 100 100 100 100 100 100 100 100
100 100 100 100 100 100 100 100 100 41 100 98 100 100 100 90 100 83 100 100 100 100 100 100 100 100 100
100 100 100 100 95 94 100 100 100 99 99 100 100 96 87 93 99 100 100 100 100 100 100 100 100 100 100
100 100 100 100 100 98 100 100 100 100 98 100 100 100 100 100 62 100 100 100 100 100 100 100 100 100 100
100 100 100 100 100 100 100 100 100 100 96 100 100 100 100 98 76 100 100 99 100 100 100 100 100 100 100

GFSFLT2_prec_cloud_036.txt.gz
Cloud_Cover
0 5 44 97 90 100 98 90 5 31 62 96 100 100 100 100 100 100 100 100 100 100 100 100 100 100 100
5 25 91 98 100 100 100 9 13 8 8 93 100 100 100 100 100 100 100 100 100 100 100 100 100 100 100
29 47 75 97 100 24 72 56 96 100 63 84 88 90 100 100 100 100 100 100 100 100 100 100 100 100 100
81 21 94 61 43 39 85 69 99 98 5 97 63 96 100 88 99 100 100 100 100 100 100 100 100 100 100
89 98 9 22 43 90 96 99 79 100 7 84 7 5 5 14 61 99 100 100 100 100 100 100 100 100 100
98 94 100 82 98 100 98 100 96 74 100 100 9 5 5 5 55 100 100 100 100 100 100 100 100 100 100
97 100 100 99 100 97 88 86 98 21 95 98 29 37 5 29 5 89 100 100 100 100 100 100 100 100 100
100 100 100 100 100 100 100 100 100 72 100 98 5 37 5 70 97 100 100 100 100 100 100 100 100 100 100
91 100 100 96 100 100 78 100 98 93 8 98 97 91 95 98 89 93 52 85 93 98 100 100 100 100 100
100 80 92 91 100 100 100 100 100 100 18 100 92 99 100 97 76 5 5 95 95 78 100 100 100 100 100
100 96 100 99 98 97 100 100 100 100 15 100 100 99 100 94 93 13 5 58 100 100 100 100 100 100 100
99 97 99 93 87 85 88 100 100 100 80 93 100 100 100 97 99 42 100 100 94 63 95 99 100 100 100
100 98 99 86 97 100 92 100 99 98 78 86 100 100 100 100 100 100 100 100 100 100 100 100 100 100 100
100 100 100 100 100 100 100 100 100 57 62 72 88 99 100 100 100 100 90 100 82 92 100 100 100 100 100
100 100 100 100 100 100 100 100 100 100 92 58 77 100 93 99 100 49 47 90 100 100 100 100 100 100 100
100 100 100 100 100 70 100 100 100 100 100 77 90 100 99 100 81 63 98 99 100 100 100 100 95 100 100
100 100 100 95 100 100 100 100 100 99 90 98 100 100 99 91 7 95 100 100 100 100 100 100 100 100 100

GFSFLT2_prec_cloud_039.txt.gz
Cloud_Cover
0 3 5 5 5 5 5 5 4 12 44 83 100 100 100 100 100 100 100 100 100 100 100 100 100 100 100
5 5 5 25 6 73 20 5 5 5 21 100 100 100 100 100 100 100 100 100 100 100 100 100 100 100 100
5 5 9 68 65 56 5 5 5 5 15 11 95 51 100 100 100 100 100 100 100 100 100 100 100 100 100
5 5 38 68 90 32 5 5 5 5 5 5 37 53 55 24 88 98 100 100 100 100 100 100 100 100 100
90 99 100 32 7 24 53 58 5 44 49 1 29 5 5 5 5 36 100 100 100 100 100 100 100 100 100
93 98 68 6 36 69 57 100 98 76 100 63 5 7 5 5 8 96 100 100 100 100 100 100 100 100 100
100 98 73 9 15 37 100 99 100 38 70 83 8 36 24 5 5 82 89 50 73 100 100 100 100 100 100
100 83 5 82 100 100 100 40 50 39 96 96 18 17 90 5 74 100 100 95 94 100 100 100 100 100 100
66 84 100 100 100 100 62 91 89 73 65 100 26 46 37 6 100 100 100 8 12 75 100 100 100 100 100
6 6 44 5 98 99 99 100 100 100 5 99 86 100 85 46 98 100 19 5 5 41 46 90 100 100 100
8 5 5 28 91 100 100 100 100 99 39 100 100 99 100 79 100 100 36 5 5 14 66 100 100 100 100
81 80 95 99 100 100 100 100 100 100 91 100 100 99 100 99 100 84 5 5 70 47 87 100 100 100 100
99 99 84 83 93 94 81 100 100 68 85 93 100 100 100 100 100 100 100 100 99 71 98 68 97 100 100
71 67 85 100 99 99 100 95 99 28 38 77 98 100 100 97 100 100 100 100 84 96 100 93 63 100 100
99 99 100 100 100 100 100 100 100 100 90 70 92 98 93 99 100 100 94 80 92 100 100 100 90 100 100
100 100 100 100 100 93 97 100 100 100 100 100 100 98 43 100 100 92 29 47 98 82 100 100 100 100 100
100 100 100 100 100 100 100 100 100 100 100 100 100 100 100 100 100 100 100 92 90 100 100 100 100 100 100

GFSFLT2_prec_cloud_042.txt.gz
Cloud_Cover
0 1 5 5 1 5 0 0 5 5 36 100 100 100 100 100 100 100 100 100 100 100 100 100 100 100 100
5 5 5 5 1 5 5 5 2 4 91 100 98 100 100 100 100 100 100 100 100 100 100 100 100 100 100
5 5 2 3 5 5 5 5 5 4 5 5 10 41 92 100 100 100 100 100 100 100 100 100 100 100 100
5 19 92 81 22 44 8 5 5 1 0 5 78 5 5 5 6 44 100 100 100 100 100 100 100 100 100
94 100 100 95 81 40 28 5 3 5 58 5 5 5 5 4 5 5 98 100 100 100 100 100 100 100 100
89 100 80 59 100 92 5 5 79 37 82 5 5 5 5 5 5 79 99 100 100 100 100 100 100 100 100
100 81 67 51 100 7 17 100 100 51 92 56 5 5 5 5 8 49 89 98 99 100 100 100 100 100 100
100 97 100 75 100 100 100 95 30 26 87 99 5 12 5 5 5 5 86 100 100 97 100 100 100 100 100
44 99 100 100 100 100 61 100 98 97 94 100 11 49 70 5 2 5 96 100 83 83 97 100 100 100 100
5 5 5 5 15 43 90 100 100 100 5 100 87 95 100 5 5 22 62 99 51 5 69 71 100 100 100
5 5 5 5 5 11 88 100 100 98 73 100 100 97 100 82 14 5 41 59 18 5 5 18 10 100 100
5 5 24 5 5 42 39 38 66 95 79 100 99 99 100 98 98 8 69 21 5 27 99 60 13 99 100
71 94 79 60 81 96 8 62 69 99 97 98 100 99 100 100 100 74 92 99 43 100 98 95 100 100 100
58 83 96 100 100 95 100 100 100 73 100 92 94 100 100 96 100 92 94 100 91 51 82 100 87 100 95
100 100 92 100 94 87 100 100 100 100 70 25 97 79 48 94 99 75 100 100 99 60 62 100 57 99 97
100 100 100 100 99 96 97 100 100 95 100 88 78 92 28 56 100 100 100 98 32 77 100 100 100 100 99
100 100 100 100 100 100 100 100 96 98 78 97 100 100 100 100 100 100 100 73 89 100 100 100 100 100 100

GFSFLT2_prec_cloud_045.txt.gz
Cloud_Cover
2 0 0 0 0 0 0 0 0 5 5 5 87 100 100 100 100 100 100 100 100 100 100 100 100 100 100
5 5 1 4 5 5 4 5 5 5 5 88 72 100 77 100 100 100 100 100 100 100 100 100 100 100 100
5 5 5 5 5 5 5 5 5 5 5 4 5 7 98 100 100 100 98 100 100 100 100 100 100 100 100
36 5 5 6 24 58 22 5 5 5 4 3 14 5 12 5 12 5 16 100 99 100 100 100 100 100 100
82 51 94 81 50 5 23 5 5 5 22 5 5 5 5 5 5 5 72 100 100 100 100 100 100 100 100
99 100 91 6 5 74 5 5 82 9 100 76 5 5 5 5 8 87 75 100 100 100 100 100 100 100 100
57 5 52 6 8 22 40 100 97 60 76 99 5 5 5 5 5 5 84 100 100 100 100 100 100 100 100
57 86 92 85 100 100 99 93 8 5 6 100 25 15 5 5 5 5 5 29 100 100 98 100 100 100 100
17 87 96 78 81 100 27 89 89 24 5 98 10 19 51 5 5 2 5 60 14 91 99 100 100 100 100
5 5 3 5 5 10 69 100 100 97 36 94 88 95 97 5 7 5 4 4 5 21 93 98 99 100 100
3 0 0 5 5 5 41 100 100 99 86 100 100 99 100 86 22 5 5 5 5 5 5 17 34 100 100
4 5 5 5 5 5 38 84 69 100 70 100 99 99 100 97 98 5 5 5 5 5 13 49 26 65 100
32 30 7 54 70 94 28 78 81 86 90 100 96 97 100 100 100 90 94 19 56 12 19 93 85 92 92
69 88 96 99 100 88 100 98 100 97 100 73 73 75 100 100 100 100 94 100 100 74 100 100 100 100 100
100 100 97 100 100 100 100 100 100 92 62 5 5 5 79 100 100 90 87 78 83 100 100 98 91 83 90
100 100 100 100 100 98 100 100 100 96 100 65 56 78 19 99 98 99 90 88 34 41 91 100 100 100 84
100 100 100 100 100 100 100 100 98 100 78 71 100 100 100 100 100 100 100 84 82 98 66 97 100 100 100

GFSFLT2_prec_cloud_048.txt.gz
Cloud_Cover
0 5 5 5 5 5 5 3 5 2 5 27 85 100 100 100 100 100 100 100 100 100 100 100 100 100 100
5 5 5 5 5 5 4 1 5 5 14 80 98 99 100 100 100 100 100 100 100 100 100 100 100 100 100
5 5 5 5 5 5 5 5 5 5 5 5 5 39 95 100 100 100 100 100 100 99 100 100 100 100 100
67 63 67 5 5 8 29 5 5 5 5 5 29 5 5 17 20 6 5 5 81 96 100 100 100 100 100
91 57 49 58 12 5 5 5 5 5 5 77 5 5 5 5 5 5 5 95 96 100 100 100 100 100 100
99 67 18 5 5 5 31 48 90 5 19 92 5 5 5 5 5 86 100 100 100 100 100 100 100 100 100
90 12 7 5 31 30 75 100 94 9 23 95 5 5 5 5 5 5 87 99 100 100 100 100 100 100 100
14 25 78 80 100 100 99 73 5 5 5 98 5 5 5 5 5 5 8 9 74 100 100 100 100 100 100
18 46 66 77 29 82 12 70 83 71 5 86 11 6 26 5 5 12 5 81 47 21 99 99 100 100 100
5 4 0 0 5 5 5 100 100 100 5 79 60 90 90 5 3 100 13 5 5 81 95 100 100 100 100
2 0 0 5 5 5 5 99 100 100 21 100 96 93 100 86 34 33 5 5 5 5 5 61 88 100 100
5 5 5 5 5 5 6 87 86 92 72 100 99 94 100 94 100 5 5 5 5 5 5 14 44 64 100
45 39 17 60 48 85 63 62 33 100 100 95 97 98 100 100 100 95 95 22 6 44 5 18 66 100 100
48 86 97 89 99 92 100 99 100 69 100 100 67 97 100 99 100 100 99 99 59 71 75 84 84 98 100
100 100 98 100 99 76 100 100 100 98 63 32 6 11 92 100 100 96 94 91 91 100 100 100 93 87 78
100 100 100 100 100 100 100 100 100 92 100 39 57 92 69 88 100 97 97 85 76 96 100 100 100 84 92
100 100 100 99 100 100 98 100 94 99 77 98 100 100 100 100 100 100 100 99 99 100 66 100 100 88 98

GFSFLT2_prec_cloud_051.txt.gz
Cloud_Cover
5 5 5 5 5 5 6 20 6 5 5 5 72 100 100 100 100 100 100 100 100 100 100 100 100 100 95
50 7 5 5 5 6 5 5 47 23 5 63 91 72 100 100 100 100 100 100 100 100 100 100 100 100 100
5 9 100 96 95 6 41 6 5 5 5 5 5 17 99 97 100 100 100 100 100 100 100 100 100 100 100
72 100 87 96 55 9 31 71 35 4 5 5 5 5 5 5 20 5 5 39 94 100 100 98 100 100 100
100 100 99 47 82 96 16 5 5 5 5 5 5 5 5 5 5 5 5 91 100 100 100 100 100 100 100
100 99 98 6 71 5 6 98 99 13 5 5 5 5 5 5 5 5 11 98 100 100 100 100 100 100 100
62 17 76 93 96 48 100 100 100 19 5 5 5 5 0 0 4 5 5 98 99 100 100 100 100 100 100
100 100 100 82 99 100 93 36 18 5 5 61 5 5 3 5 5 5 5 5 8 97 100 100 100 100 100
79 51 14 38 19 5 5 79 89 65 29 52 13 5 5 5 5 20 81 69 52 28 96 100 100 100 100
5 4 0 0 4 5 5 94 100 95 34 66 76 36 74 5 89 100 88 9 5 27 81 96 99 100 100
2 0 2 5 5 5 5 92 100 100 98 100 100 97 100 94 84 100 6 5 5 5 5 35 90 100 100
5 5 5 5 5 5 5 64 86 95 86 100 99 94 100 96 100 7 5 5 5 5 5 6 67 52 87
67 25 6 60 7 92 49 59 62 65 81 100 100 99 100 100 100 87 95 24 5 45 6 7 6 6 78
49 96 99 100 100 83 100 100 100 24 14 73 55 82 100 99 100 98 98 99 53 24 100 100 91 96 100
100 99 96 100 98 72 99 100 100 99 62 5 18 49 87 100 100 100 100 100 100 100 100 90 80 89 100
100 100 100 100 100 96 100 100 100 100 99 11 75 96 91 100 100 97 92 90 37 95 97 100 100 100 85
100 100 100 96 100 100 100 100 100 100 87 78 100 100 100 100 100 100 100 100 99 99 64 89 94 100 76

GFSFLT2_prec_cloud_054.txt.gz
Cloud_Cover
100 100 100 86 100 74 99 27 44 28 44 10 18 78 99 99 100 100 100 100 100 100 100 100 100 100 100
100 100 82 100 100 100 100 91 99 47 5 17 59 60 100 99 100 100 100 100 100 100 100 100 100 100 100
100 98 82 100 89 73 100 93 61 98 33 10 5 5 25 82 99 93 93 84 98 100 100 100 98 100 100
71 89 100 93 83 28 20 75 48 62 54 42 60 5 5 5 5 5 5 5 94 98 99 95 99 99 100
100 94 97 66 52 36 43 90 94 78 55 80 5 5 4 5 5 5 5 17 90 99 100 100 100 100 100
100 100 89 100 100 99 61 100 97 88 5 13 5 5 5 5 5 5 5 8 94 96 100 100 100 100 100
100 100 56 5 8 64 81 87 94 57 5 12 5 5 0 0 0 5 5 69 87 100 100 100 100 100 100
26 5 16 80 100 100 90 62 19 5 5 85 5 5 1 2 3 70 100 50 7 95 100 100 100 100 100
10 11 13 11 11 5 5 78 98 62 5 86 12 5 5 5 9 100 100 14 24 6 8 99 99 100 100
5 2 0 0 5 5 23 100 100 80 5 75 51 61 49 5 19 90 22 12 5 5 7 97 100 100 100
0 0 3 5 5 5 5 95 100 100 5 100 97 95 100 84 5 5 5 5 5 5 5 28 94 99 100
5 5 5 5 5 5 5 22 72 90 50 98 98 98 100 96 99 5 5 5 5 8 5 5 60 37 85
79 73 33 7 5 52 5 5 7 13 32 74 90 97 100 100 99 82 98 81 58 100 100 100 98 72 73
71 77 41 58 74 45 94 76 99 12 5 95 82 81 100 100 100 92 75 100 96 72 100 95 100 100 100
98 100 87 90 78 13 86 100 100 89 66 52 48 99 98 100 100 100 100 100 38 62 87 100 100 96 100
100 100 100 100 100 94 100 100 100 98 99 56 72 100 100 100 100 100 78 98 100 90 96 100 100 100 82
100 100 100 100 100 100 100 100 98 100 94 94 100 100 100 100 100 100 100 89 99 100 76 100 100 100 98

GFSFLT2_prec_cloud_057.txt.gz
Cloud_Cover
100 100 100 100 100 100 100 100 100 93 11 5 46 54 78 86 98 99 100 100 100 100 100 100 100 100 100
100 100 100 100 97 100 100 100 92 73 84 62 9 5 5 11 89 100 94 100 100 100 100 100 100 100 100
100 100 100 100 100 100 100 100 100 100 100 37 60 81 5 5 50 79 38 59 68 96 100 97 94 95 100
100 100 100 100 99 100 100 100 100 100 100 100 8 5 5 5 5 5 5 5 5 27 94 97 100 100 100
100 100 100 100 100 96 47 74 77 55 5 5 5 6 5 5 5 5 5 5 5 61 98 100 100 100 100
100 100 100 100 81 70 89 100 97 5 25 83 5 5 5 5 0 5 5 5 80 97 100 100 100 100 100
100 100 94 73 12 32 91 100 100 18 45 52 5 5 5 5 0 4 5 18 35 84 100 100 100 100 100
52 45 12 46 98 95 88 73 71 5 47 84 5 5 5 5 5 5 5 5 26 88 94 100 100 100 100
5 16 17 13 6 55 77 85 83 6 21 92 30 66 63 5 3 0 5 5 9 6 10 92 97 100 100
5 2 0 0 5 5 56 98 100 87 5 72 88 96 85 5 4 4 5 5 5 5 70 94 97 100 100
0 2 5 5 5 5 51 99 100 96 35 100 93 98 100 93 21 5 5 5 5 5 5 92 98 100 100
5 5 5 5 5 5 8 54 84 86 7 99 99 98 100 100 96 96 90 6 5 63 45 31 26 29 96
68 66 60 38 52 89 86 79 87 81 83 100 94 100 100 100 99 58 100 96 5 65 99 83 85 84 99
91 86 86 98 89 82 98 89 88 12 5 5 53 87 99 100 100 97 100 100 100 61 82 87 65 85 91
97 98 92 92 83 89 93 97 99 88 38 5 7 94 96 98 100 91 87 70 78 58 89 92 90 79 79
100 100 96 99 97 83 91 100 100 95 95 61 82 84 68 100 95 84 90 96 90 99 100 100 89 99 92
100 100 100 100 100 96 86 100 100 100 92 90 100 100 100 95 100 100 100 29 71 100 100 100 98 100 100

GFSFLT2_prec_cloud_060.txt.gz
Cloud_Cover
100 100 100 100 100 100 100 99 100 100 100 5 12 6 56 5 68 89 100 92 97 100 100 100 100 100 100
94 100 100 100 100 100 100 100 100 100 75 56 97 99 39 5 5 5 72 94 91 99 99 94 88 99 100
100 100 100 100 100 100 100 100 100 100 100 81 68 5 5 5 5 5 6 5 5 40 75 84 91 97 100
100 100 100 100 84 76 100 100 100 98 99 65 34 5 5 5 5 5 5 5 5 5 9 31 92 99 100
100 100 100 100 100 100 58 42 100 76 60 23 9 5 5 5 3 5 5 5 5 10 79 100 100 100 100
100 100 100 100 97 92 80 93 100 57 6 31 5 5 5 5 4 5 5 5 5 50 93 100 100 100 100
100 100 98 77 94 100 100 100 100 68 87 70 22 13 5 5 4 5 5 5 5 5 74 100 100 100 100
100 100 100 56 86 96 92 100 82 87 96 63 14 34 5 5 5 5 5 5 5 5 22 90 94 96 96
100 100 57 13 26 36 76 94 78 20 7 66 27 85 5 5 5 5 5 5 5 5 59 88 96 99 100
55 5 5 4 5 5 82 99 100 97 60 41 78 93 81 5 5 5 5 5 5 58 98 98 100 100 100
5 5 5 5 5 5 50 100 100 100 26 100 82 92 100 91 5 5 5 5 5 5 91 97 100 100 100
5 5 36 69 77 68 82 83 98 93 21 100 98 97 100 99 92 5 5 28 48 57 44 80 92 100 100
79 91 90 85 81 95 86 100 100 97 84 72 98 100 100 100 98 74 91 100 25 43 69 89 98 100 100
86 83 86 88 96 100 100 100 100 71 53 42 48 100 100 100 100 100 88 99 24 40 100 100 100 100 100
90 96 92 99 100 100 100 100 100 100 82 10 89 100 100 100 100 100 100 82 100 100 100 100 100 92 83
97 98 100 100 100 100 98 100 100 100 100 71 91 100 80 82 51 85 81 96 97 100 100 100 100 100 100
100 100 100 100 100 98 100 98 100 100 100 100 100 100 100 90 96 100 100 63 76 98 100 100 100 99 100

GFSFLT2_prec_cloud_063.txt.gz
Cloud_Cover
100 100 100 100 100 100 100 100 100 100 100 100 99 98 88 100 77 7 62 6 24 19 97 100 100 100 100
100 100 100 100 100 100 100 100 99 100 100 100 90 100 49 55 50 20 5 5 8 85 98 100 100 100 100
100 100 100 100 100 100 100 100 100 90 100 100 48 5 5 5 5 5 5 5 46 44 27 18 6 29 85
100 100 96 82 99 99 99 100 99 100 83 5 5 5 5 18 5 5 5 48 11 13 5 5 48 87 100
93 100 100 100 100 100 100 82 96 16 5 82 98 100 100 88 33 5 5 9 43 74 83 86 98 100 100
100 100 100 100 100 100 100 99 88 96 100 100 24 5 5 0 4 5 5 66 44 98 98 98 100 100 100
100 100 100 99 72 50 68 83 100 100 100 99 5 5 0 0 0 5 5 5 5 5 5 15 50 95 97
99 100 100 100 100 100 100 100 70 22 61 30 5 3 1 3 4 5 5 5 5 5 5 74 99 100 100
100 100 100 100 100 100 63 38 27 23 5 6 5 5 5 2 0 1 5 5 5 5 60 91 99 100 100
100 98 82 25 5 5 5 76 100 94 17 5 6 44 30 4 3 0 0 4 5 5 16 96 100 100 100
5 5 5 5 5 33 52 76 100 100 47 98 49 67 97 60 5 5 5 5 5 5 5 52 100 100 100
5 5 26 48 91 100 100 98 93 100 89 100 100 100 100 100 98 8 5 5 8 6 9 25 71 100 100
31 79 100 100 100 100 100 100 100 100 100 95 100 100 100 100 100 87 97 37 5 5 58 94 99 94 97
10 28 81 100 100 100 100 100 100 100 100 100 100 100 100 100 100 94 85 100 81 23 74 72 94 92 92
98 100 100 100 100 100 100 97 98 100 100 100 100 100 100 99 97 89 100 100 100 100 100 100 91 100 100
100 100 100 100 100 100 100 94 96 100 100 100 100 100 96 80 21 63 100 99 100 98 95 100 98 100 100
100 100 100 100 100 100 100 89 91 100 100 100 100 100 100 100 84 100 100 10 76 100 79 100 100 100 100

GFSFLT2_prec_cloud_066.txt.gz
Cloud_Cover
100 100 100 100 100 100 100 100 100 100 100 100 100 100 96 60 85 100 100 87 50 86 100 100 100 100 100
100 100 100 100 100 100 100 100 100 100 100 100 100 100 85 97 100 100 99 75 95 94 100 100 100 100 100
100 100 100 100 100 100 100 100 100 96 73 100 100 99 100 100 99 98 97 98 82 61 65 20 17 49 67
100 100 87 30 91 81 100 100 100 99 88 100 96 100 100 86 100 100 100 100 74 38 19 11 12 19 96
100 100 100 100 100 100 100 100 95 84 95 94 100 99 60 94 83 46 5 7 75 70 77 98 100 100 100
100 100 100 100 100 100 100 91 79 93 100 98 100 100 100 27 5 5 5 6 68 93 72 77 83 100 100
100 100 100 100 100 100 100 100 100 100 100 100 99 52 2 0 0 5 5 6 13 20 67 79 99 100 100
94 100 100 100 100 100 100 100 100 100 97 68 5 3 1 3 0 4 5 5 5 22 61 82 100 100 100
100 100 100 100 73 36 13 9 12 5 5 5 5 5 0 1 2 0 5 5 5 6 99 100 100 100 100
5 5 3 0 5 5 5 34 21 67 5 37 11 43 42 9 7 4 5 3 5 5 68 100 100 100 100
5 5 5 5 5 5 5 48 91 100 79 100 86 97 100 98 38 18 5 5 5 5 5 6 72 100 100
5 5 39 5 63 99 100 100 96 91 92 100 100 100 100 100 100 36 58 14 5 5 5 5 8 40 92
10 78 100 100 100 100 100 100 100 100 100 100 100 100 100 100 100 90 80 5 5 7 53 6 6 25 65
22 90 75 100 100 100 100 100 100 97 24 100 100 100 100 100 95 86 93 99 22 5 65 5 5 98 52
98 100 100 100 100 100 100 100 100 100 57 100 100 100 100 99 100 100 100 100 57 39 97 95 57 98 100
100 100 100 100 100 100 100 100 100 100 89 100 100 100 78 38 32 91 72 79 24 39 100 100 76 78 100
100 100 100 100 100 100 100 100 100 100 92 97 100 100 100 90 5 8 19 6 38 60 78 97 91 99 62

GFSFLT2_prec_cloud_069.txt.gz
Cloud_Cover
100 100 100 100 100 100 100 100 100 100 100 100 100 100 100 100 100 100 100 100 100 100 100 100 96 100 100
100 100 100 100 100 100 100 100 100 100 100 100 100 100 100 100 100 100 100 100 100 100 100 100 100 99 100
100 100 100 100 100 100 100 100 100 100 100 100 100 100 88 29 53 53 52 30 86 100 100 100 94 79 89
100 100 100 100 100 100 100 100 100 99 100 100 92 85 100 43 33 10 5 15 32 48 24 29 5 44 92
100 100 100 100 100 100 97 100 76 98 66 77 98 85 100 100 100 100 100 74 35 5 40 44 97 99 100
100 100 100 100 100 89 94 100 100 100 100 100 100 100 100 100 99 80 5 5 5 5 33 98 90 100 100
100 100 100 100 100 100 100 98 92 75 46 25 25 8 5 1 0 4 5 5 5 6 87 98 100 100 100
60 60 58 61 43 13 6 5 5 5 5 54 5 5 5 5 4 5 5 5 5 7 6 41 97 78 100
5 5 8 5 6 5 43 5 34 5 5 8 5 5 5 5 5 4 5 5 5 5 12 45 90 100 84
56 60 34 5 6 5 5 5 75 37 6 53 41 100 31 8 7 5 5 4 5 5 5 38 95 97 93
22 5 5 5 5 5 20 48 74 98 87 100 99 100 100 100 83 31 5 5 5 5 5 5 6 64 85
5 5 5 53 64 82 100 100 100 100 100 100 100 100 100 99 96 9 5 5 5 5 5 5 5 6 16
7 5 70 77 60 100 100 100 100 100 100 100 100 100 96 99 86 85 80 18 64 5 5 5 5 16 24
5 59 73 100 100 100 100 100 100 100 99 5 86 84 94 91 97 100 100 100 93 43 16 18 31 21 98
100 100 100 100 100 100 100 100 100 100 100 74 54 97 96 95 95 92 85 91 57 6 40 52 5 6 57
100 100 100 100 100 100 100 100 100 100 100 100 88 95 43 37 27 100 100 88 8 5 64 100 99 15 100
100 100 100 100 100 100 99 100 93 93 100 100 100 100 100 85 5 5 5 5 7 46 69 100 80 32 45

GFSFLT2_prec_cloud_072.txt.gz
Cloud_Cover
100 100 100 100 100 100 100 100 100 100 100 100 100 100 100 100 100 100 100 100 100 100 100 100 100 100 100
100 100 100 100 100 100 100 100 100 100 100 100 100 100 100 100 100 100 100 100 100 100 100 100 100 100 100
100 100 100 100 100 100 100 100 100 100 100 100 100 100 100 100 100 100 100 100 100 100 97 94 75 38 82
100 100 100 100 100 100 100 100 100 100 100 100 100 100 100 100 100 100 100 100 100 45 11 34 37 43 60
100 96 99 100 100 87 68 83 68 89 100 100 100 100 100 98 86 17 20 29 19 9 22 61 95 76 100
100 97 13 5 5 5 11 44 31 64 76 46 10 5 5 5 5 5 5 5 5 11 71 98 78 81 100
5 5 5 5 6 6 5 5 5 5 5 5 5 5 5 5 5 5 5 13 13 28 37 23 98 73 83
74 77 73 66 68 86 87 78 51 42 5 64 5 5 5 5 5 5 5 10 6 8 6 18 52 98 82
9 24 11 52 42 22 70 76 10 5 5 11 5 12 5 5 5 9 5 5 5 5 5 31 94 100 92
70 9 5 5 5 5 5 33 68 37 9 60 39 67 32 5 7 5 5 2 5 5 5 12 70 80 37
5 5 5 5 5 5 5 41 96 100 77 98 100 100 95 84 9 5 5 5 5 5 5 5 5 39 76
5 6 6 5 63 91 95 100 100 99 100 100 100 100 100 100 88 7 5 5 6 5 5 5 5 5 12
5 5 8 52 88 100 100 100 100 100 100 100 100 100 100 100 96 96 89 64 68 7 14 14 5 5 23
29 77 89 100 100 100 100 100 100 100 99 100 100 100 100 98 92 90 92 100 24 5 5 5 6 7 19
100 100 100 100 100 100 100 100 99 92 91 98 87 97 85 100 100 97 87 100 100 24 24 66 30 11 7
100 100 100 100 100 100 100 99 99 67 42 60 91 92 16 5 24 96 83 88 34 5 26 88 100 26 74
100 100 100 100 100 100 99 97 96 74 10 12 63 98 100 97 8 5 5 10 5 22 77 78 90 39 22

GFSFLT2_prec_cloud_075.txt.gz
Cloud_Cover
100 100 100 100 100 100 100 100 100 100 100 100 100 100 100 100 100 100 100 100 100 100 100 100 100 100 100
96 100 100 100 100 100 100 100 100 100 100 100 100 100 100 100 100 100 100 100 100 100 100 100 100 100 100
100 100 100 100 100 100 100 100 100 100 100 100 100 100 100 100 100 94 100 100 100 100 100 100 50 100 100
100 100 100 100 100 100 100 100 100 100 95 85 94 100 100 100 100 100 100 100 100 100 100 100 99 62 70
100 100 87 89 79 69 76 44 20 6 5 5 29 90 100 100 98 100 100 100 100 100 100 97 78 100 100
16 14 5 5 8 6 5 5 5 14 40 99 98 96 56 89 100 99 99 99 99 99 61 100 100 100 100
5 5 10 44 32 7 6 11 22 66 28 62 26 5 5 5 5 5 5 5 10 44 40 67 30 12 40
5 5 5 5 5 5 5 5 5 5 5 69 5 5 5 5 5 5 46 50 9 5 6 5 7 23 74
5 16 25 18 62 23 78 61 9 5 5 14 8 14 5 5 5 70 9 5 5 5 5 5 7 83 95
5 5 5 5 5 6 6 35 65 38 19 44 34 17 34 5 7 5 5 0 5 5 5 8 66 100 96
5 5 5 5 5 5 20 60 90 97 76 99 98 99 89 50 6 5 5 5 5 4 5 5 6 20 52
5 7 9 7 65 99 100 100 100 96 95 100 97 100 100 100 90 6 5 5 8 5 16 5 5 5 8
25 41 51 32 31 96 100 100 100 100 100 100 100 100 100 100 92 97 100 21 12 8 38 15 6 12 7
51 27 76 100 100 100 100 100 99 93 92 100 100 100 100 95 95 100 100 98 30 87 99 13 6 5 16
99 100 100 100 100 100 100 100 100 93 64 18 87 98 100 100 100 96 100 100 94 76 30 80 34 6 5
100 100 100 100 100 98 100 100 98 91 78 64 62 90 68 6 11 59 75 100 54 6 9 100 66 16 5
100 100 100 100 100 99 98 100 94 69 64 61 94 99 100 98 5 8 48 12 53 7 5 71 82 11 5

GFSFLT2_prec_cloud_078.txt.gz
Cloud_Cover
100 100 94 100 100 100 100 100 100 100 100 100 100 100 100 100 100 100 100 100 100 100 100 100 100 100 100
91 100 75 100 100 100 100 100 100 100 100 100 100 100 100 100 100 100 100 100 100 100 100 100 100 100 100
96 99 92 100 100 100 100 100 100 100 100 100 100 100 100 100 100 100 100 100 100 100 100 100 100 100 100
100 100 89 66 89 83 100 100 100 95 97 100 100 100 98 90 100 100 100 100 100 100 100 100 100 100 100
14 11 5 5 6 5 17 22 23 17 14 6 5 5 5 5 23 92 94 99 76 87 100 100 100 100 68
68 5 5 5 5 5 16 14 23 8 5 5 5 5 5 5 5 5 5 14 5 7 12 48 89 100 98
5 5 5 5 5 7 5 5 5 5 5 5 5 5 5 5 5 5 5 5 7 17 26 89 98 85 49
5 5 5 5 5 5 5 5 5 5 5 71 5 5 5 5 5 5 20 77 29 5 5 5 5 6 6
5 5 5 8 19 46 6 49 37 5 5 17 5 12 5 5 5 100 100 41 5 5 5 5 7 19 12
2 5 5 6 20 11 19 70 68 8 8 63 67 38 47 5 5 5 5 5 5 5 5 5 14 10 5
4 5 5 5 50 38 38 41 82 83 78 90 93 99 92 63 6 5 5 5 5 4 5 5 5 27 14
5 10 41 8 46 86 89 100 99 98 96 100 98 98 100 100 89 7 5 5 19 39 22 5 5 5 10
29 51 50 66 100 100 100 100 100 100 99 100 100 96 96 99 93 97 100 79 70 36 39 41 10 5 7
55 20 76 100 100 100 100 100 100 96 84 99 100 100 97 100 96 86 96 98 45 75 97 54 8 5 12
13 8 89 100 100 100 100 100 95 95 67 6 92 100 96 99 100 90 68 45 14 98 92 66 22 6 5
18 85 88 100 100 100 100 100 98 73 68 56 74 81 95 100 100 100 91 7 30 98 53 100 61 5 5
16 91 100 100 100 100 100 100 86 95 99 98 99 99 100 100 100 100 100 53 46 63 29 6 9 5 5

GFSFLT2_prec_cloud_081.txt.gz
Cloud_Cover
100 99 95 100 100 100 100 100 100 100 100 100 100 100 100 100 100 100 100 100 100 100 100 100 100 100 100
82 100 97 100 100 100 99 100 93 100 99 99 100 100 100 100 100 100 100 100 100 100 99 100 100 100 100
90 94 100 100 100 98 99 98 57 89 100 100 95 96 100 100 100 100 100 100 100 100 100 100 100 100 100
84 100 94 65 54 25 6 5 20 40 16 46 51 73 73 52 52 86 84 61 12 100 100 94 62 100 100
5 5 5 5 5 5 4 1 0 0 4 5 32 16 5 0 1 5 5 5 12 15 12 43 99 100 100
5 5 5 5 5 5 2 0 5 4 1 5 4 5 5 5 5 5 5 5 5 5 13 75 16 12 100
1 5 5 5 5 5 5 5 5 5 5 5 5 5 5 5 5 5 5 5 14 30 68 40 51 93 97
5 5 4 4 5 5 5 5 5 5 9 5 5 5 5 5 5 5 27 67 100 88 6 5 11 10 44
5 9 7 9 5 5 6 8 5 5 5 16 15 16 5 5 5 98 100 100 32 5 5 11 12 23 26
5 5 5 5 35 5 5 5 5 23 24 51 62 53 33 5 5 11 5 5 5 5 5 5 5 5 34
5 5 5 5 5 5 5 5 69 82 88 95 81 81 92 83 56 10 5 12 5 5 5 5 5 25 62
5 5 5 5 5 5 13 67 93 77 83 94 97 90 100 100 93 30 5 94 95 13 9 10 5 17 44
5 5 5 5 5 65 96 98 100 100 100 91 82 100 100 100 100 98 100 70 12 70 67 94 31 8 10
5 5 5 5 89 99 85 100 92 87 5 67 90 91 97 100 100 100 100 99 6 6 77 85 74 41 10
5 5 53 94 94 77 87 93 99 94 90 16 5 10 6 47 100 100 100 91 91 88 83 100 61 29 8
5 15 73 82 99 91 98 97 99 97 97 87 53 38 54 49 36 100 100 87 76 77 96 100 100 64 5
5 43 6 81 98 100 97 96 100 100 94 99 94 100 100 94 99 92 67 74 41 57 38 92 92 99 5

GFSFLT2_prec_cloud_084.txt.gz
Cloud_Cover
100 100 99 96 84 96 100 100 100 100 100 100 100 100 100 78 100 100 89 100 100 100 100 100 100 100 100
100 88 70 84 85 88 74 50 90 100 100 100 98 100 100 99 89 99 100 100 100 48 100 80 96 100 100
94 78 74 100 77 79 10 62 77 77 62 85 84 100 97 67 100 96 95 76 100 100 100 100 100 97 100
67 38 85 30 20 22 13 5 5 5 5 5 5 5 5 5 5 5 5 5 5 36 100 100 97 53 98
13 11 6 5 4 5 5 5 0 0 0 0 0 0 1 1 3 0 0 1 5 5 5 11 29 68 100
13 1 0 0 1 5 5 5 5 2 0 0 0 0 5 5 5 5 5 5 5 5 5 92 100 100 100
5 4 1 2 14 54 5 5 3 2 5 0 1 3 3 5 11 62 23 13 6 16 20 63 100 100 100
5 2 5 5 48 9 5 5 5 5 5 5 5 4 5 5 9 87 100 52 19 37 88 39 11 10 56
5 5 5 23 21 13 29 13 6 5 5 6 6 5 5 5 5 5 8 69 29 87 80 49 56 24 13
9 12 33 15 51 5 5 43 10 61 61 64 70 48 48 5 5 6 9 5 5 5 5 10 6 5 5
46 24 30 33 5 5 5 46 99 94 98 99 100 100 98 81 59 25 27 7 6 8 73 100 21 14 70
6 6 5 11 70 52 62 84 91 81 97 99 95 99 100 100 92 56 83 87 50 87 100 100 100 100 40
5 5 43 65 19 29 87 68 73 85 75 92 95 100 100 100 100 99 100 82 60 93 96 100 100 100 58
40 54 59 84 100 100 100 100 100 100 100 79 6 72 100 100 100 100 97 98 47 74 91 89 100 100 100
56 58 78 92 98 100 100 100 100 100 100 100 100 89 81 88 92 78 80 80 89 100 100 100 79 85 100
24 62 82 95 96 100 100 100 100 100 100 100 100 99 95 51 21 47 78 83 83 100 100 100 100 55 30
57 89 80 99 100 100 100 100 100 100 100 100 100 100 100 89 56 12 60 94 100 95 83 76 79 100 81

GFSFLT2_prec_cloud_087.txt.gz
Cloud_Cover
100 100 100 100 100 74 94 100 100 100 100 100 99 74 93 64 100 100 100 100 100 43 100 100 100 100 100
100 100 100 100 100 58 26 26 28 84 100 100 100 63 33 100 100 100 100 98 99 100 56 100 100 100 96
99 100 100 90 17 27 13 4 0 4 2 5 20 5 5 100 99 56 10 5 5 31 44 18 5 5 78
100 100 58 82 6 5 5 5 5 4 5 5 5 5 5 5 5 5 5 5 5 5 5 5 5 4 5
100 97 76 64 5 5 4 0 0 5 5 5 5 5 1 0 0 0 0 0 2 5 5 5 5 5 5
100 85 23 21 5 5 0 0 5 5 5 5 5 5 2 0 0 4 5 5 5 5 5 6 92 100 100
90 54 28 5 5 5 5 5 9 6 5 5 5 0 0 0 1 2 5 5 5 5 16 14 29 90 100
5 4 6 5 5 5 5 5 5 5 5 5 4 0 0 2 2 0 5 7 5 5 5 11 99 100 72
5 5 5 5 5 5 18 5 5 5 5 5 6 5 5 5 5 11 26 5 5 5 17 92 64 19 8
5 5 5 5 5 5 5 7 8 27 22 5 36 18 9 5 5 5 5 5 5 5 9 22 49 7 5
5 5 4 5 5 5 5 37 100 88 76 44 98 100 92 79 5 5 6 5 5 5 9 30 48 36 67
5 5 5 5 9 5 24 34 100 76 79 100 71 94 100 100 85 7 34 62 19 50 100 100 100 79 91
36 49 74 89 31 58 80 98 89 85 90 86 58 98 100 100 99 91 100 70 100 94 100 100 100 97 50
86 98 81 40 78 100 100 100 100 100 100 100 78 30 91 100 100 100 99 100 81 72 62 99 100 16 40
91 99 91 58 66 100 100 100 100 100 100 100 100 100 100 100 100 100 54 68 72 95 100 100 100 96 10
100 100 64 76 77 75 100 100 100 100 100 100 100 99 100 100 100 86 66 15 99 100 100 100 65 6 5
100 100 88 99 82 37 74 91 99 100 100 100 100 100 100 100 97 7 42 14 82 100 95 84 64 5 5

GFSFLT2_prec_cloud_090.txt.gz
Cloud_Cover
92 100 100 100 100 100 100 100 100 100 100 100 100 43 62 38 74 100 100 100 100 86 100 93 99 99 100
100 100 100 100 100 100 100 100 100 48 100 76 27 48 4 5 5 42 96 69 100 44 100 90 100 100 100
100 100 100 100 100 100 100 100 28 5 4 1 0 1 25 90 89 42 100 90 80 17 5 5 8 31 84
100 100 100 100 100 100 100 53 5 4 1 1 3 5 5 4 5 5 5 5 5 5 5 5 5 5 3
100 100 100 100 100 98 30 5 4 0 0 1 5 5 5 5 5 5 5 1 0 0 5 5 5 4 5
100 100 100 100 100 5 5 5 5 4 5 5 5 5 5 5 5 5 5 5 4 5 5 5 4 5 5
100 100 100 99 35 8 5 5 5 2 5 5 5 5 0 4 5 4 5 5 5 5 15 5 26 90 100
100 100 100 69 18 16 5 3 3 1 5 5 5 5 5 5 5 5 4 9 7 5 6 5 5 79 100
100 99 54 5 5 4 5 5 5 5 5 5 5 5 5 5 5 7 18 5 5 5 5 13 31 100 40
88 5 5 5 4 3 5 58 10 8 5 7 7 9 34 25 8 5 5 5 5 5 5 18 41 86 5
60 5 5 5 7 14 6 10 5 30 62 24 47 45 73 59 5 5 5 5 5 5 5 19 91 100 95
77 71 5 37 29 11 10 38 36 58 21 100 72 66 94 100 58 10 5 5 8 76 100 100 100 100 100
100 100 11 20 24 34 77 99 98 90 68 94 85 58 83 97 93 81 95 33 11 100 100 100 100 100 100
99 78 24 55 76 100 100 100 100 87 97 100 100 94 88 59 98 100 100 89 6 16 77 100 100 100 100
98 100 98 100 100 100 100 100 100 83 87 99 100 100 100 100 98 99 99 48 6 17 99 100 93 100 63
100 100 100 100 100 100 100 100 100 98 90 94 100 100 92 66 19 84 95 71 30 70 100 100 92 13 5
100 100 100 100 100 100 100 100 100 72 85 98 100 100 97 98 84 7 80 72 98 52 6 8 38 5 5

GFSFLT2_prec_cloud_093.txt.gz
Cloud_Cover
100 100 100 100 100 100 100 100 100 100 100 100 100 100 97 71 98 100 100 100 100 100 100 100 100 96 100
100 100 100 100 94 96 100 100 100 100 100 100 100 71 3 2 3 5 8 100 88 100 100 100 100 99 83
100 100 100 100 100 100 100 100 100 100 100 90 72 20 96 96 85 13 5 5 33 98 100 91 7 17 80
100 100 67 100 100 100 100 100 100 100 100 19 8 1 1 3 5 5 5 5 5 5 3 5 4 5 5
100 100 99 100 100 100 100 100 100 100 87 28 0 0 0 1 4 5 5 5 5 1 0 3 0 0 2
100 100 100 100 100 100 100 100 100 98 24 2 0 0 2 5 5 5 5 5 5 4 5 5 4 5 5
100 100 100 100 100 100 100 100 60 17 4 5 4 5 5 5 5 5 5 5 5 5 5 5 5 5 6
100 100 100 100 100 100 100 80 6 4 5 5 5 5 6 5 5 5 11 8 7 5 12 5 5 5 11
100 100 100 100 100 100 50 5 5 5 5 9 63 21 12 5 5 9 7 5 5 5 5 5 6 36 100
100 100 100 100 100 100 35 58 68 30 40 23 30 34 13 5 8 5 5 5 5 5 25 15 16 98 82
100 100 100 100 100 93 6 5 62 71 60 42 80 100 64 39 7 6 5 5 12 92 92 6 49 93 100
100 100 100 100 81 96 22 48 45 14 32 51 98 100 94 69 19 10 5 28 81 76 80 98 99 100 100
100 100 100 48 85 76 64 75 81 75 98 100 100 100 100 96 73 55 74 18 65 68 98 100 99 100 99
100 99 80 99 99 92 76 92 99 100 100 100 100 100 100 100 96 69 25 83 43 11 5 5 78 100 100
100 100 100 100 100 74 97 100 100 100 89 100 100 100 100 90 96 87 97 100 56 17 5 40 47 52 10
100 100 100 100 93 100 100 100 100 100 86 100 100 100 100 99 98 83 98 100 64 43 50 85 89 13 5
100 100 100 100 100 100 100 100 100 100 100 100 76 100 100 100 83 5 28 71 76 81 86 74 90 6 5

GFSFLT2_prec_cloud_096.txt.gz
Cloud_Cover
100 100 100 100 100 72 97 100 100 100 100 100 100 100 100 100 100 100 94 100 100 100 100 65 78 98 100
100 100 100 100 100 100 94 98 100 100 100 100 100 100 100 100 95 94 100 100 100 100 100 100 100 100 82
100 100 100 100 100 92 97 100 100 100 100 100 100 100 100 100 98 13 5 6 5 13 5 36 89 10 5
100 100 100 91 100 100 92 100 93 100 100 100 100 100 100 28 5 4 5 5 5 5 5 5 5 5 5
100 100 100 100 100 100 100 100 100 100 100 100 100 97 18 42 2 0 5 5 5 5 5 5 5 5 0
90 100 100 100 100 100 100 100 100 100 100 100 100 58 5 5 4 5 5 5 5 5 5 5 5 5 3
100 96 100 100 100 100 100 100 100 100 100 100 93 6 5 5 6 33 7 5 5 5 5 5 5 5 5
100 100 100 100 100 100 100 100 100 100 100 57 5 5 5 41 69 22 48 31 6 5 15 5 5 5 5
100 100 100 100 100 100 100 100 100 100 100 8 6 7 55 52 66 82 10 22 37 7 5 5 5 5 5
100 100 100 100 100 100 100 100 100 90 52 7 11 14 33 49 73 66 51 37 36 6 18 6 5 14 100
100 100 100 100 100 100 100 100 100 73 50 53 75 53 58 66 65 50 47 45 97 86 22 5 12 93 100
100 100 100 100 100 100 100 100 100 93 45 66 68 62 73 70 77 39 56 99 76 91 7 5 51 100 100
100 100 100 100 100 100 100 100 100 98 63 59 75 99 92 100 98 67 93 62 89 66 41 47 75 75 90
100 100 100 100 100 100 100 100 100 100 78 100 100 100 100 100 100 63 60 61 55 68 18 16 7 6 96
100 100 100 100 100 100 100 100 100 100 100 100 92 96 100 100 100 80 23 81 98 36 32 14 8 5 5
100 100 100 100 100 100 100 100 100 100 100 100 100 100 100 100 100 68 69 100 100 73 45 95 68 5 5
100 100 100 100 100 100 100 100 100 100 100 100 100 100 100 100 90 32 89 45 57 83 23 37 97 47 5

GFSFLT2_prec_cloud_099.txt.gz
Cloud_Cover
100 100 100 100 100 100 100 100 100 100 100 100 100 100 100 100 100 100 100 100 100 100 100 100 100 100 85
100 100 100 100 100 100 100 100 100 100 100 100 100 100 100 100 100 100 100 100 100 99 98 99 100 73 100
100 100 100 100 100 100 100 100 100 100 100 100 100 100 100 100 100 100 100 79 90 100 100 94 94 87 58
100 100 100 100 100 100 100 100 100 100 100 99 100 100 100 100 100 100 100 5 5 6 6 5 5 5 5
100 100 100 100 100 100 100 100 100 100 100 100 100 100 100 100 100 99 5 5 5 5 5 5 5 5 5
100 100 100 100 100 100 100 100 100 100 100 100 100 100 100 100 100 12 5 5 21 37 53 11 5 5 5
100 100 100 100 100 100 98 100 100 100 100 100 100 100 100 100 5 5 5 38 86 62 18 5 5 6 12
98 98 100 100 100 100 100 100 100 100 100 100 100 100 100 91 30 32 5 11 77 40 7 9 35 58 22
100 100 100 100 100 100 100 100 100 100 100 100 100 100 100 23 43 98 100 98 73 65 15 6 5 5 5
100 100 100 100 100 100 100 100 100 100 100 100 100 100 100 51 42 60 72 92 77 19 33 49 76 21 5
100 100 100 100 100 100 100 100 100 100 100 100 100 100 75 99 78 58 58 61 57 98 100 89 59 13 5
100 100 100 100 100 100 100 100 100 100 100 100 100 100 100 100 84 55 87 97 100 99 100 86 5 21 99
100 100 100 100 100 100 100 100 100 100 100 100 100 100 100 100 70 86 100 100 100 100 100 31 10 36 15
100 100 100 100 100 100 100 100 100 100 100 100 100 100 100 100 100 100 100 100 100 100 83 43 38 6 8
100 100 100 100 100 100 100 100 100 100 100 100 100 100 100 100 100 100 100 100 100 95 52 76 66 36 9
100 100 100 100 100 100 100 100 100 100 100 100 100 100 100 100 100 100 100 100 90 100 85 100 96 36 5
100 100 100 100 100 100 100 100 100 100 100 100 100 100 100 100 100 100 89 74 43 96 64 66 90 8 5

GFSFLT2_prec_cloud_102.txt.gz
Cloud_Cover
100 100 100 100 100 100 100 100 100 100 100 100 100 100 100 100 100 100 100 100 100 100 100 100 100 100 100
100 100 100 100 100 100 100 100 100 100 100 100 100 100 100 100 100 100 100 100 100 100 100 100 100 100 100
100 100 100 100 100 100 100 100 100 100 100 100 100 100 100 100 100 100 100 100 100 100 100 100 82 99 100
100 100 100 100 100 100 100 100 100 100 100 100 100 100 100 100 100 100 100 100 100 100 16 18 52 79 32
100 100 100 100 100 100 100 100 100 100 100 100 100 100 100 100 100 100 100 100 100 65 5 5 14 12 5
100 100 100 100 100 100 100 100 100 100 100 100 100 100 100 100 100 100 100 100 100 5 5 10 28 43 5
100 100 100 99 100 90 96 100 100 100 100 100 100 100 100 100 100 100 100 100 93 5 27 88 68 8 5
100 99 80 98 97 99 100 100 100 100 100 100 100 100 100 100 100 100 100 100 20 13 81 100 82 51 65
82 61 100 100 100 100 100 100 100 100 100 100 100 100 100 100 100 100 100 100 52 21 93 100 86 85 74
100 89 90 100 100 100 100 100 100 100 100 100 100 100 100 100 100 100 100 100 36 5 84 100 100 95 62
96 99 100 100 100 100 100 100 100 100 100 100 100 100 100 100 100 100 100 100 63 57 97 100 100 70 99
73 93 98 100 100 100 100 100 100 100 100 100 100 100 100 100 100 100 100 100 93 99 100 100 100 100 75
89 100 100 100 100 100 100 100 100 100 100 100 100 100 100 100 100 100 100 100 100 100 100 100 100 100 100
90 100 100 100 100 100 100 100 100 100 100 100 100 100 100 100 100 100 100 100 100 100 100 100 100 100 100
100 100 100 100 100 100 100 100 100 100 100 100 100 100 100 100 86 97 100 100 100 100 100 100 100 100 100
92 99 100 100 100 100 100 100 100 100 100 100 100 100 100 100 100 97 100 100 100 100 100 100 85 100 82
98 100 100 100 100 100 100 100 100 100 100 100 100 100 100 100 100 100 100 100 100 100 100 100 91 98 99

GFSFLT2_prec_cloud_105.txt.gz
Cloud_Cover
99 100 100 100 100 100 100 100 100 100 100 100 100 100 100 100 100 100 100 100 100 100 100 100 100 100 100
100 100 100 100 100 100 100 100 100 100 100 100 100 100 100 100 100 100 100 100 100 100 100 100 100 100 100
100 100 100 100 100 100 100 100 100 100 100 100 100 100 100 100 100 100 100 100 100 100 100 100 100 100 100
100 100 100 100 100 100 100 100 100 100 100 100 100 100 100 100 100 100 100 100 100 100 100 100 100 93 38
100 100 100 100 100 100 100 100 100 100 68 100 100 100 100 100 100 100 100 100 100 100 100 100 100 24 5
100 100 100 100 100 100 100 100 100 47 52 44 83 100 100 100 100 100 100 100 100 100 100 100 99 5 5
100 100 100 100 100 100 100 100 100 76 84 100 100 100 100 100 100 100 100 100 100 100 100 100 95 8 23
100 100 100 100 53 91 100 100 98 100 100 100 100 100 100 100 100 100 100 100 100 100 100 100 36 8 18
100 100 100 37 86 93 99 97 100 100 100 100 100 100 100 100 100 100 100 100 100 100 100 99 93 62 13
73 16 6 29 98 100 100 100 100 100 100 100 100 100 100 100 100 100 100 100 100 100 100 100 94 52 52
5 5 51 61 90 94 100 100 100 100 100 100 100 100 100 100 100 100 100 100 100 100 100 100 100 94 98
32 60 97 100 98 100 100 100 100 100 100 100 100 100 100 100 100 100 100 100 100 100 100 100 100 95 62
80 96 100 100 87 100 100 99 100 96 100 100 100 100 100 100 100 100 100 100 100 100 100 100 100 98 81
81 78 83 89 100 98 100 100 99 100 100 100 100 100 100 100 100 100 100 100 100 100 100 100 100 100 100
98 91 99 99 99 100 100 95 100 100 100 100 100 100 100 100 100 100 100 100 100 100 99 96 100 100 100
94 88 88 99 100 100 100 100 100 100 100 100 100 100 100 99 96 100 100 100 100 100 100 97 66 100 100
100 100 100 100 100 100 100 100 96 91 100 100 100 100 100 88 100 100 100 96 100 100 100 100 54 99 100

GFSFLT2_prec_cloud_108.txt.gz
Cloud_Cover
100 100 92 100 100 100 100 100 100 100 100 100 100 100 100 100 100 100 100 100 100 100 100 100 100 100 100
99 100 100 100 100 100 100 100 100 100 100 100 100 100 100 100 100 100 100 100 100 100 100 100 100 100 100
100 100 100 100 100 100 100 100 100 100 100 100 100 99 100 100 100 100 100 100 100 100 100 100 100 100 100
100 100 100 100 100 100 100 100 100 100 100 100 100 22 100 100 100 100 100 100 100 100 100 100 100 100 100
100 100 100 100 100 100 100 100 100 100 100 92 10 23 75 100 100 100 100 100 100 100 100 100 100 100 100
100 100 100 100 100 100 100 100 100 100 100 39 100 100 100 100 100 74 100 100 100 100 100 100 100 100 100
100 100 100 100 100 100 100 100 100 100 26 95 90 100 100 100 100 100 100 100 100 100 100 100 100 100 100
100 100 100 100 100 100 100 100 100 100 90 99 99 100 100 100 100 100 100 100 100 100 100 100 100 100 100
100 100 100 100 100 96 97 100 100 77 96 100 100 100 100 100 100 100 100 100 100 100 100 100 100 100 100
97 99 100 100 92 23 39 83 38 58 70 85 77 100 100 100 100 100 100 100 100 100 100 100 100 100 100
5 23 5 21 5 29 64 75 99 64 50 91 100 100 100 100 100 100 100 100 100 100 100 100 100 100 100
8 6 70 98 28 62 39 77 100 100 96 98 94 77 99 100 100 100 100 100 100 100 100 100 100 100 100
61 13 38 100 91 59 95 97 95 93 99 100 90 75 98 99 100 100 100 100 100 100 100 100 100 100 100
64 21 44 95 81 86 74 65 92 100 100 89 87 100 100 100 100 100 100 100 100 100 100 100 100 100 100
14 58 55 68 95 96 87 99 94 84 91 100 100 100 100 100 100 100 100 100 100 100 100 100 100 99 100
50 58 54 34 84 100 100 100 100 100 100 100 100 100 100 100 100 100 100 100 100 100 92 90 65 96 67
26 15 11 78 100 100 100 100 100 100 100 100 100 100 100 100 99 100 100 100 89 100 100 72 38 85 46

GFSFLT2_prec_cloud_111.txt.gz
Cloud_Cover
100 60 99 97 82 100 100 100 100 100 100 100 98 91 78 99 100 100 100 100 100 100 100 100 100 100 100
100 51 81 100 100 100 100 100 100 100 100 100 84 41 99 100 98 100 100 100 100 100 100 100 100 100 100
84 94 92 100 100 100 100 100 100 100 100 100 100 82 2 12 83 100 100 100 100 100 100 100 100 100 100
100 98 99 98 100 100 100 100 100 100 100 100 100 62 0 3 5 100 100 100 100 100 100 100 100 100 100
65 96 100 100 100 100 100 100 100 100 100 100 100 13 17 79 49 53 100 100 100 100 100 100 100 100 100
70 89 98 100 100 100 100 100 100 100 100 100 100 5 5 6 100 100 100 100 100 100 100 100 100 100 100
100 81 100 100 100 100 100 100 100 100 100 98 26 5 53 100 97 100 100 100 100 100 100 100 100 100 100
99 100 100 100 100 100 100 100 100 100 100 100 6 5 25 58 100 100 100 100 100 100 100 100 100 100 100
100 100 100 100 100 100 100 100 100 100 100 98 5 5 12 74 100 100 100 100 100 100 100 100 100 100 100
100 100 100 100 100 100 100 100 100 94 5 13 10 75 77 61 100 100 100 100 100 100 100 100 100 100 100
5 5 5 5 8 27 14 92 100 67 37 51 51 50 92 95 76 100 99 97 100 100 100 100 100 100 100
5 5 5 5 5 5 5 12 68 95 73 94 94 58 100 90 99 100 100 100 100 100 100 100 100 100 100
5 5 5 61 40 11 38 89 100 94 91 100 100 91 92 76 85 100 100 100 100 100 100 100 100 100 100
5 5 5 15 8 22 44 48 95 100 98 100 100 100 74 58 81 100 100 100 100 100 100 100 100 100 100
5 18 56 79 94 90 83 74 100 100 100 100 100 100 100 100 99 94 100 100 100 100 100 100 100 100 100
5 44 72 77 73 84 72 96 100 100 100 100 100 100 100 100 100 100 100 100 100 100 100 100 100 100 100
8 50 72 93 99 74 79 100 100 100 100 100 100 100 100 100 100 100 100 100 100 86 67 100 100 100 100

GFSFLT2_prec_cloud_114.txt.gz
Cloud_Cover
100 83 100 98 100 87 76 97 91 100 100 95 78 89 46 3 3 71 100 100 100 100 100 100 100 100 100
98 97 100 100 100 100 99 100 100 100 100 99 97 100 8 0 90 89 100 100 100 100 100 100 100 100 100
100 100 100 95 99 100 100 100 100 100 100 100 94 100 31 2 1 88 100 100 100 100 100 100 100 100 100
100 100 98 67 100 100 100 100 100 100 100 100 100 100 87 0 0 81 100 100 100 100 100 100 100 100 100
100 99 91 98 100 100 100 100 100 100 100 100 100 100 96 0 0 9 100 100 100 100 100 100 100 100 100
100 100 100 73 100 100 100 100 100 100 100 100 100 100 71 0 0 4 95 100 100 100 100 100 100 100 100
100 100 99 100 100 100 100 100 100 100 100 100 100 84 16 0 0 5 5 75 95 100 100 100 100 100 100
100 56 74 100 100 100 100 100 100 100 100 100 100 31 5 5 5 53 77 100 91 100 100 100 100 100 100
60 66 74 100 91 100 100 100 100 100 100 100 99 14 5 5 5 49 68 32 95 100 100 100 100 100 100
100 98 96 100 96 99 100 100 100 100 83 73 36 69 86 48 90 95 50 80 100 100 100 100 100 100 100
98 93 38 5 22 80 93 100 100 100 7 30 100 100 94 79 75 78 52 94 100 100 100 100 100 100 100
46 85 81 12 22 27 16 18 88 100 59 69 100 100 100 100 79 71 31 77 91 99 96 99 100 100 100
99 80 16 58 42 32 77 100 87 70 90 100 100 100 100 100 100 94 86 100 94 90 100 100 100 100 100
47 10 88 59 57 67 78 83 98 100 100 100 100 92 100 100 100 100 83 97 100 100 100 100 100 100 100
5 6 54 91 93 99 97 100 99 100 99 93 100 98 100 100 100 100 100 100 100 100 100 100 100 100 100
66 80 65 78 100 98 100 100 100 100 98 81 99 100 100 100 100 100 100 100 100 100 100 100 100 100 100
89 100 98 90 98 100 93 100 90 95 91 88 100 100 100 100 100 100 100 100 100 100 100 100 100 100 100

GFSFLT2_prec_cloud_117.txt.gz
Cloud_Cover
100 100 100 97 100 100 100 100 81 59 86 78 100 60 97 82 8 91 100 100 100 100 0 46 100 100 100
100 100 100 100 100 100 99 100 100 100 98 52 100 90 97 96 4 30 93 100 100 100 1 0 88 100 100
100 100 100 100 100 100 58 100 92 99 99 100 100 100 100 45 2 0 94 100 100 100 67 0 65 100 100
100 100 100 100 100 87 100 100 100 100 100 100 100 100 100 100 1 2 70 100 100 100 100 100 78 100 100
100 100 100 100 100 100 100 100 100 100 100 100 100 100 100 100 2 0 64 72 100 100 100 100 100 100 100
100 100 100 100 98 100 100 100 100 100 100 100 100 100 100 100 1 0 5 99 100 100 100 100 100 100 100
100 100 100 100 100 100 100 100 100 100 100 100 100 100 99 18 3 0 0 24 95 100 100 100 100 100 100
100 90 100 100 96 98 100 100 100 100 100 100 100 100 73 4 3 4 5 5 5 62 100 100 100 100 100
61 92 100 100 70 100 100 100 100 100 100 100 100 97 10 5 15 9 5 5 42 5 89 98 100 100 100
99 100 99 100 100 100 100 100 100 100 100 43 78 43 5 8 92 66 12 62 89 32 33 97 100 100 100
100 100 100 99 93 100 100 100 100 100 100 10 77 18 15 87 98 75 98 89 61 95 100 97 100 100 100
100 100 100 98 100 100 91 72 87 99 98 24 57 22 74 65 88 42 86 98 71 64 84 100 100 100 100
100 100 100 100 98 96 100 100 90 83 97 100 99 99 77 75 90 70 96 70 75 43 35 91 77 86 86
100 88 100 100 83 94 91 100 90 100 27 92 100 81 91 87 100 89 99 98 100 74 62 76 83 77 93
100 78 78 100 99 100 82 96 72 96 100 43 55 90 94 88 97 100 100 100 100 100 100 92 79 94 100
81 100 100 100 94 97 76 74 82 36 61 60 88 85 87 99 100 100 100 100 100 100 100 100 100 100 100
100 100 100 99 94 94 100 79 75 51 42 63 49 60 76 96 100 100 100 100 100 100 100 100 100 100 100

GFSFLT2_prec_cloud_120.txt.gz
Cloud_Cover
100 100 100 100 100 64 99 100 100 100 100 100 100 100 100 61 7 100 100 98 100 100 100 94 1 9 7
100 98 98 100 100 100 100 94 100 100 100 100 100 100 88 68 89 100 100 100 100 100 100 2 0 0 3
100 100 100 100 100 100 100 100 100 100 100 100 100 100 100 100 100 100 65 90 100 100 100 13 0 0 0
100 100 100 100 98 100 100 100 100 78 99 100 100 99 100 100 100 74 32 89 100 100 100 100 94 47 35
100 95 100 100 100 100 100 100 100 100 80 100 100 100 100 100 100 35 4 31 100 100 100 100 100 100 100
100 100 100 100 100 100 100 100 100 100 100 100 100 100 100 100 97 61 15 33 100 100 100 100 100 100 100
100 100 100 100 100 100 100 100 100 100 100 100 100 100 100 100 64 3 0 5 63 100 100 100 100 100 100
100 100 99 100 100 100 100 100 100 100 100 100 100 100 100 99 5 0 0 0 5 79 100 100 100 100 100
100 100 100 100 100 100 100 100 100 100 100 100 100 100 79 5 5 0 0 11 71 98 30 96 100 100 100
100 100 100 100 100 100 100 100 100 100 100 100 97 90 34 5 6 5 5 33 90 100 100 59 57 99 100
100 100 100 100 100 100 100 100 100 100 100 98 98 73 40 20 13 26 5 32 96 100 100 30 36 67 41
100 100 100 100 100 100 100 100 100 100 100 100 92 37 86 75 10 14 29 74 99 100 98 96 84 43 89
100 100 100 100 100 100 100 100 100 100 99 97 91 95 67 45 7 22 55 83 100 100 100 79 57 25 39
100 100 100 100 100 100 100 100 100 98 78 100 100 100 100 100 53 6 96 100 100 100 100 100 86 85 90
100 100 100 100 100 100 99 100 99 100 100 76 42 45 23 8 45 60 93 84 100 100 97 100 100 100 98
100 94 100 100 100 100 99 100 100 86 95 97 91 55 36 40 45 92 58 80 100 100 100 100 100 100 100
60 44 100 100 100 100 100 100 100 86 78 89 100 100 100 100 96 97 90 24 94 100 100 100 100 100 100